When you browse on this site, cookies collect data to enhance your experience and personalize the content and advertising you see.
Visit our Privacy Policy to learn more. By continuing to use the site, you agree to this use of cookies and data.
  • In Czech Republic
  • List of Countries
  • For 7 days
  • Water Temperature
  • Satellite Maps
  • Weather Map
  • Weather Widgets
  • user-avatar
    Login

    Hourly Weather Sylhet

    Today, 19 May, Sunday

    Time Temperature Precipitation Wind Pressure Humidity
    00:00 +28°C° 0 mm 2 mps 753 mmHg 95%
    01:00 +28°C° 0.8 mm 2 mps 753 mmHg 96%
    02:00 +28°C° 0.8 mm 2 mps 753 mmHg 96%
    03:00 +27°C° 0.8 mm 1 mps 753 mmHg 97%
    04:00 +27°C° 0.1 mm 2 mps 753 mmHg 96%
    05:00 +28°C° 0.1 mm 2 mps 754 mmHg 96%
    06:00 +28°C° 0 mm 2 mps 754 mmHg 95%
    07:00 +29°C° 0.4 mm 2 mps 754 mmHg 91%
    08:00 +30°C° 0.4 mm 2 mps 755 mmHg 88%
    09:00 +31°C° 0.4 mm 2 mps 755 mmHg 85%
    10:00 +32°C° 0.3 mm 2 mps 755 mmHg 79%
    11:00 +35°C° 0.3 mm 2 mps 755 mmHg 72%
    12:00 +36°C° 0 mm 2 mps 755 mmHg 68%
    13:00 +36°C° 1.5 mm 2 mps 754 mmHg 65%
    14:00 +37°C° 1.5 mm 2 mps 754 mmHg 63%
    15:00 +37°C° 1.5 mm 2 mps 753 mmHg 60%
    16:00 +37°C° 0.2 mm 2 mps 753 mmHg 63%
    17:00 +35°C° 0.2 mm 1 mps 753 mmHg 66%
    18:00 +35°C° 0.2 mm 1 mps 753 mmHg 69%
    19:00 +33°C° 0.9 mm 1 mps 754 mmHg 74%
    20:00 +31°C° 0.9 mm 1 mps 754 mmHg 80%
    21:00 +30°C° 0.9 mm 2 mps 755 mmHg 86%
    22:00 +29°C° 0.1 mm 2 mps 755 mmHg 88%
    23:00 +29°C° 0.1 mm 2 mps 755 mmHg 89%

    Tomorrow, 20 May, Monday

    Time Temperature Precipitation Wind Pressure Humidity
    00:00 +29°C° 0.1 mm 2 mps 755 mmHg 91%
    01:00 +28°C° 0.3 mm 2 mps 755 mmHg 92%
    02:00 +28°C° 0.3 mm 1 mps 755 mmHg 92%
    03:00 +28°C° 0.3 mm 1 mps 755 mmHg 92%
    04:00 +28°C° 0.3 mm 1 mps 755 mmHg 92%
    05:00 +28°C° 0.3 mm 1 mps 755 mmHg 91%
    06:00 +28°C° 0.3 mm 1 mps 755 mmHg 91%
    07:00 +30°C° 0.1 mm 1 mps 756 mmHg 84%
    08:00 +31°C° 0.1 mm 2 mps 756 mmHg 78%
    09:00 +34°C° 0.1 mm 2 mps 756 mmHg 71%
    10:00 +36°C° 0 mm 2 mps 756 mmHg 64%
    11:00 +37°C° 0 mm 2 mps 755 mmHg 57%
    12:00 +39°C° 0 mm 1 mps 755 mmHg 50%
    13:00 +40°C° 0 mm 1 mps 754 mmHg 47%
    14:00 +40°C° 0 mm 1 mps 753 mmHg 44%
    15:00 +41°C° 0 mm 1 mps 752 mmHg 41%
    16:00 +40°C° 0 mm 1 mps 752 mmHg 46%
    17:00 +39°C° 0 mm 1 mps 752 mmHg 50%
    18:00 +37°C° 0 mm 2 mps 752 mmHg 55%
    19:00 +35°C° 1.7 mm 2 mps 752 mmHg 61%
    20:00 +34°C° 1.7 mm 2 mps 753 mmHg 68%
    21:00 +31°C° 1.7 mm 3 mps 753 mmHg 74%
    22:00 +30°C° 0.8 mm 2 mps 754 mmHg 77%
    23:00 +30°C° 0.8 mm 1 mps 754 mmHg 80%

    Day after tomorrow, 21 May, Tuesday

    Time Temperature Precipitation Wind Pressure Humidity
    00:00 +30°C° 0.8 mm 1 mps 754 mmHg 83%
    01:00 +29°C° 0.1 mm 1 mps 754 mmHg 84%
    02:00 +29°C° 0.1 mm 2 mps 753 mmHg 85%
    03:00 +28°C° 0.1 mm 2 mps 753 mmHg 86%
    04:00 +28°C° 0.3 mm 2 mps 753 mmHg 87%
    05:00 +28°C° 0.3 mm 2 mps 754 mmHg 87%
    06:00 +28°C° 0.3 mm 2 mps 754 mmHg 88%
    07:00 +30°C° 0.1 mm 2 mps 754 mmHg 81%
    08:00 +32°C° 0.1 mm 2 mps 755 mmHg 75%
    09:00 +35°C° 0.1 mm 2 mps 755 mmHg 68%
    10:00 +36°C° 0 mm 2 mps 755 mmHg 62%
    11:00 +38°C° 0 mm 2 mps 754 mmHg 55%
    12:00 +39°C° 0 mm 2 mps 754 mmHg 49%
    13:00 +40°C° 0 mm 2 mps 753 mmHg 47%
    14:00 +40°C° 0 mm 2 mps 752 mmHg 45%
    15:00 +41°C° 0 mm 2 mps 752 mmHg 42%
    16:00 +40°C° 0 mm 2 mps 751 mmHg 46%
    17:00 +39°C° 0 mm 1 mps 751 mmHg 50%
    18:00 +37°C° 0 mm 1 mps 751 mmHg 54%
    19:00 +35°C° 0.2 mm 1 mps 752 mmHg 59%
    20:00 +34°C° 0.2 mm 1 mps 753 mmHg 64%
    21:00 +32°C° 0.2 mm 1 mps 753 mmHg 69%
    22:00 +32°C° 0.8 mm 1 mps 753 mmHg 73%
    23:00 +31°C° 0.8 mm 1 mps 753 mmHg 77%

    22 May, Wednesday

    Time Temperature Precipitation Wind Pressure Humidity
    00:00 +30°C° 0.8 mm 1 mps 754 mmHg 80%
    01:00 +30°C° 2.1 mm 1 mps 753 mmHg 83%
    02:00 +29°C° 2.1 mm 2 mps 753 mmHg 86%
    03:00 +29°C° 2.1 mm 2 mps 753 mmHg 89%
    04:00 +29°C° 0.1 mm 2 mps 753 mmHg 90%
    05:00 +29°C° 0.1 mm 2 mps 753 mmHg 90%
    06:00 +29°C° 0.1 mm 2 mps 754 mmHg 91%
    07:00 +30°C° 0.1 mm 2 mps 754 mmHg 87%
    08:00 +30°C° 0.1 mm 2 mps 754 mmHg 83%
    09:00 +31°C° 0.1 mm 2 mps 755 mmHg 79%
    10:00 +34°C° 0 mm 2 mps 754 mmHg 72%
    11:00 +35°C° 0 mm 2 mps 754 mmHg 65%
    12:00 +37°C° 0 mm 2 mps 753 mmHg 58%
    13:00 +36°C° 0 mm 1 mps 753 mmHg 57%
    14:00 +37°C° 0 mm 1 mps 752 mmHg 55%
    15:00 +37°C° 0 mm 1 mps 751 mmHg 53%
    16:00 +37°C° 0 mm 1 mps 751 mmHg 56%
    17:00 +37°C° 0 mm 2 mps 751 mmHg 59%
    18:00 +37°C° 0 mm 2 mps 750 mmHg 62%
    19:00 +35°C° 0.9 mm 2 mps 751 mmHg 67%
    20:00 +34°C° 0.9 mm 2 mps 752 mmHg 72%
    21:00 +31°C° 0.9 mm 2 mps 753 mmHg 78%
    22:00 +31°C° 1.5 mm 2 mps 753 mmHg 80%
    23:00 +30°C° 1.5 mm 2 mps 753 mmHg 83%

    23 May, Thursday

    Time Temperature Precipitation Wind Pressure Humidity
    00:00 +29°C° 1.5 mm 1 mps 753 mmHg 86%
    01:00 +29°C° 0.8 mm 2 mps 753 mmHg 87%
    02:00 +29°C° 0.8 mm 2 mps 753 mmHg 87%
    03:00 +29°C° 0.8 mm 2 mps 753 mmHg 88%
    04:00 +29°C° 0.2 mm 2 mps 753 mmHg 88%
    05:00 +29°C° 0.2 mm 3 mps 753 mmHg 87%
    06:00 +29°C° 0.2 mm 3 mps 754 mmHg 87%
    07:00 +30°C° 0 mm 3 mps 754 mmHg 83%
    08:00 +31°C° 0 mm 3 mps 754 mmHg 78%
    09:00 +33°C° 0 mm 3 mps 755 mmHg 74%
    10:00 +34°C° 0 mm 3 mps 754 mmHg 70%
    11:00 +35°C° 0 mm 2 mps 754 mmHg 66%
    12:00 +36°C° 0 mm 2 mps 754 mmHg 61%
    13:00 +37°C° 0.1 mm 2 mps 753 mmHg 59%
    14:00 +38°C° 0.1 mm 2 mps 752 mmHg 56%
    15:00 +39°C° 0.1 mm 2 mps 751 mmHg 53%
    16:00 +38°C° 0.2 mm 3 mps 751 mmHg 58%
    17:00 +37°C° 0.2 mm 3 mps 751 mmHg 63%
    18:00 +36°C° 0.2 mm 3 mps 751 mmHg 67%
    19:00 +35°C° 0.3 mm 3 mps 751 mmHg 71%
    20:00 +33°C° 0.3 mm 4 mps 752 mmHg 74%
    21:00 +32°C° 0.3 mm 4 mps 752 mmHg 77%
    22:00 +31°C° 2.5 mm 3 mps 753 mmHg 81%
    23:00 +30°C° 2.5 mm 3 mps 753 mmHg 84%

    24 May, Friday

    Time Temperature Precipitation Wind Pressure Humidity
    00:00 +29°C° 2.5 mm 2 mps 753 mmHg 87%
    01:00 +29°C° 1.8 mm 2 mps 753 mmHg 88%
    02:00 +29°C° 1.8 mm 2 mps 753 mmHg 89%
    03:00 +29°C° 1.8 mm 2 mps 753 mmHg 89%
    04:00 +29°C° 11.4 mm 2 mps 753 mmHg 90%
    05:00 +28°C° 11.4 mm 3 mps 753 mmHg 91%
    06:00 +28°C° 11.4 mm 3 mps 753 mmHg 91%
    07:00 +29°C° 0.6 mm 3 mps 754 mmHg 89%
    08:00 +30°C° 0.6 mm 3 mps 754 mmHg 87%
    09:00 +30°C° 0.6 mm 4 mps 755 mmHg 84%
    10:00 +31°C° 1 mm 3 mps 754 mmHg 83%
    11:00 +31°C° 1 mm 3 mps 754 mmHg 81%
    12:00 +33°C° 1 mm 3 mps 754 mmHg 79%
    13:00 +33°C° 0.8 mm 3 mps 753 mmHg 75%
    14:00 +34°C° 0.8 mm 3 mps 752 mmHg 71%
    15:00 +35°C° 0.8 mm 3 mps 751 mmHg 67%
    16:00 +35°C° 0.9 mm 2 mps 751 mmHg 70%
    17:00 +34°C° 0.9 mm 2 mps 751 mmHg 73%
    18:00 +34°C° 0.9 mm 2 mps 750 mmHg 76%
    19:00 +32°C° 3.6 mm 2 mps 751 mmHg 80%
    20:00 +31°C° 3.6 mm 2 mps 752 mmHg 84%
    21:00 +29°C° 3.6 mm 2 mps 752 mmHg 87%
    22:00 +29°C° 3.1 mm 2 mps 752 mmHg 89%
    23:00 +29°C° 3.1 mm 2 mps 752 mmHg 91%
    Show more